When you browse on this site, cookies collect data to enhance your experience and personalize the content and advertising you see.
Visit our Privacy Policy to learn more. By continuing to use the site, you agree to this use of cookies and data.
  • In Germany
  • List of Countries
  • For 7 days
  • Water Temperature
  • Weather Map
  • Weather Widgets
  • user-avatar
    Login

    Hourly Weather Djelfa

    Today, 27 May, Wednesday

    Time Temperature Precipitation Wind Pressure Humidity
    00:00 +24°C° 0 mm 3 mps 669 mmHg 26%
    01:00 +22°C° 0 mm 3 mps 669 mmHg 26%
    02:00 +22°C° 0 mm 3 mps 669 mmHg 26%
    03:00 +21°C° 0 mm 3 mps 669 mmHg 26%
    04:00 +21°C° 0.2 mm 3 mps 669 mmHg 28%
    05:00 +21°C° 0.2 mm 2 mps 669 mmHg 30%
    06:00 +24°C° 0 mm 2 mps 669 mmHg 25%
    07:00 +25°C° 0 mm 3 mps 670 mmHg 23%
    08:00 +27°C° 0 mm 4 mps 670 mmHg 21%
    09:00 +28°C° 0 mm 4 mps 671 mmHg 19%
    10:00 +29°C° 0 mm 4 mps 670 mmHg 19%
    11:00 +30°C° 0 mm 5 mps 670 mmHg 18%
    12:00 +30°C° 0 mm 5 mps 670 mmHg 18%
    13:00 +30°C° 0.1 mm 5 mps 670 mmHg 20%
    14:00 +29°C° 0.1 mm 5 mps 669 mmHg 21%
    15:00 +29°C° 0.1 mm 5 mps 669 mmHg 23%
    16:00 +27°C° 0.3 mm 6 mps 668 mmHg 32%
    17:00 +23°C° 0.3 mm 8 mps 668 mmHg 41%
    18:00 +21°C° 0.3 mm 10 mps 667 mmHg 50%
    19:00 +21°C° 0.1 mm 7 mps 668 mmHg 48%
    20:00 +21°C° 0.1 mm 5 mps 669 mmHg 46%
    21:00 +23°C° 0.1 mm 2 mps 669 mmHg 43%
    22:00 +23°C° 0 mm 2 mps 669 mmHg 43%
    23:00 +23°C° 0 mm 2 mps 669 mmHg 43%

    Tomorrow, 28 May, Thursday

    Time Temperature Precipitation Wind Pressure Humidity
    00:00 +22°C° 0 mm 1 mps 669 mmHg 43%
    01:00 +21°C° 0 mm 3 mps 669 mmHg 44%
    02:00 +20°C° 0 mm 4 mps 669 mmHg 45%
    03:00 +20°C° 0 mm 6 mps 669 mmHg 47%
    04:00 +19°C° 0 mm 6 mps 669 mmHg 47%
    05:00 +18°C° 0 mm 7 mps 669 mmHg 47%
    06:00 +18°C° 0 mm 8 mps 669 mmHg 47%
    07:00 +20°C° 0 mm 8 mps 669 mmHg 44%
    08:00 +21°C° 0 mm 8 mps 670 mmHg 41%
    09:00 +22°C° 0 mm 9 mps 670 mmHg 38%
    10:00 +24°C° 0 mm 8 mps 670 mmHg 34%
    11:00 +26°C° 0 mm 7 mps 670 mmHg 31%
    12:00 +28°C° 0 mm 6 mps 670 mmHg 27%
    13:00 +28°C° 0 mm 6 mps 669 mmHg 26%
    14:00 +28°C° 0 mm 5 mps 669 mmHg 25%
    15:00 +29°C° 0 mm 5 mps 669 mmHg 24%
    16:00 +27°C° 0.2 mm 5 mps 668 mmHg 28%
    17:00 +26°C° 0.2 mm 5 mps 668 mmHg 32%
    18:00 +25°C° 0.2 mm 5 mps 668 mmHg 36%
    19:00 +22°C° 0.3 mm 5 mps 668 mmHg 43%
    20:00 +21°C° 0.3 mm 4 mps 668 mmHg 50%
    21:00 +20°C° 0.3 mm 3 mps 668 mmHg 58%
    22:00 +20°C° 0.2 mm 4 mps 668 mmHg 57%
    23:00 +20°C° 0.2 mm 4 mps 667 mmHg 57%

    Day after tomorrow, 29 May, Friday

    Time Temperature Precipitation Wind Pressure Humidity
    00:00 +20°C° 0.2 mm 4 mps 667 mmHg 56%
    01:00 +19°C° 0.2 mm 5 mps 667 mmHg 56%
    02:00 +19°C° 0.2 mm 6 mps 666 mmHg 55%
    03:00 +18°C° 0.2 mm 7 mps 666 mmHg 55%
    04:00 +18°C° 0.4 mm 7 mps 666 mmHg 54%
    05:00 +18°C° 0.4 mm 7 mps 666 mmHg 53%
    06:00 +19°C° 0.4 mm 6 mps 666 mmHg 51%
    07:00 +20°C° 0.7 mm 6 mps 666 mmHg 47%
    08:00 +21°C° 0.7 mm 6 mps 667 mmHg 42%
    09:00 +23°C° 0.7 mm 6 mps 667 mmHg 37%
    10:00 +24°C° 0 mm 6 mps 667 mmHg 34%
    11:00 +27°C° 0 mm 6 mps 666 mmHg 30%
    12:00 +28°C° 0 mm 6 mps 666 mmHg 27%
    13:00 +28°C° 0 mm 6 mps 665 mmHg 26%
    14:00 +29°C° 0 mm 5 mps 665 mmHg 24%
    15:00 +30°C° 0 mm 5 mps 664 mmHg 23%
    16:00 +28°C° 0.1 mm 5 mps 664 mmHg 29%
    17:00 +26°C° 0.1 mm 4 mps 663 mmHg 35%
    18:00 +23°C° 0.1 mm 4 mps 662 mmHg 41%
    19:00 +22°C° 0.2 mm 5 mps 663 mmHg 45%
    20:00 +21°C° 0.2 mm 6 mps 663 mmHg 49%
    21:00 +20°C° 0.2 mm 8 mps 663 mmHg 53%
    22:00 +20°C° 0 mm 6 mps 663 mmHg 54%
    23:00 +20°C° 0 mm 5 mps 663 mmHg 54%

    30 May, Saturday

    Time Temperature Precipitation Wind Pressure Humidity
    00:00 +20°C° 0 mm 4 mps 663 mmHg 55%
    01:00 +20°C° 0.2 mm 3 mps 663 mmHg 58%
    02:00 +19°C° 0.2 mm 3 mps 662 mmHg 62%
    03:00 +18°C° 0.2 mm 2 mps 662 mmHg 66%
    04:00 +19°C° 0 mm 3 mps 662 mmHg 66%
    05:00 +19°C° 0 mm 3 mps 662 mmHg 67%
    06:00 +19°C° 0 mm 3 mps 662 mmHg 67%
    07:00 +20°C° 0 mm 4 mps 663 mmHg 62%
    08:00 +22°C° 0 mm 4 mps 663 mmHg 56%
    09:00 +23°C° 0 mm 5 mps 663 mmHg 51%
    10:00 +25°C° 0 mm 5 mps 664 mmHg 45%
    11:00 +26°C° 0 mm 5 mps 664 mmHg 39%
    12:00 +28°C° 0 mm 5 mps 664 mmHg 33%
    13:00 +28°C° 0 mm 5 mps 664 mmHg 30%
    14:00 +28°C° 0 mm 6 mps 663 mmHg 28%
    15:00 +29°C° 0 mm 6 mps 663 mmHg 26%
    16:00 +28°C° 0 mm 6 mps 663 mmHg 27%
    17:00 +27°C° 0 mm 6 mps 663 mmHg 28%
    18:00 +27°C° 0 mm 6 mps 663 mmHg 29%
    19:00 +25°C° 0 mm 5 mps 663 mmHg 33%
    20:00 +23°C° 0 mm 5 mps 664 mmHg 38%
    21:00 +22°C° 0 mm 5 mps 664 mmHg 42%
    22:00 +21°C° 0 mm 4 mps 664 mmHg 45%
    23:00 +21°C° 0 mm 3 mps 664 mmHg 48%

    31 May, Sunday

    Time Temperature Precipitation Wind Pressure Humidity
    00:00 +20°C° 0 mm 2 mps 664 mmHg 51%
    01:00 +20°C° 0 mm 2 mps 663 mmHg 51%
    02:00 +19°C° 0 mm 2 mps 663 mmHg 51%
    03:00 +19°C° 0 mm 2 mps 663 mmHg 52%
    04:00 +19°C° 0 mm 2 mps 663 mmHg 52%
    05:00 +19°C° 0 mm 3 mps 664 mmHg 53%
    06:00 +20°C° 0 mm 3 mps 664 mmHg 54%
    07:00 +21°C° 0 mm 3 mps 665 mmHg 50%
    08:00 +22°C° 0 mm 4 mps 665 mmHg 47%
    09:00 +25°C° 0 mm 4 mps 665 mmHg 44%
    10:00 +26°C° 0 mm 5 mps 665 mmHg 40%
    11:00 +27°C° 0 mm 5 mps 665 mmHg 37%
    12:00 +28°C° 0 mm 6 mps 666 mmHg 34%
    13:00 +29°C° 0 mm 6 mps 665 mmHg 31%
    14:00 +30°C° 0 mm 5 mps 665 mmHg 28%
    15:00 +32°C° 0 mm 5 mps 665 mmHg 25%
    16:00 +33°C° 0 mm 6 mps 665 mmHg 23%
    17:00 +33°C° 0 mm 7 mps 665 mmHg 20%
    18:00 +34°C° 0 mm 8 mps 665 mmHg 17%
    19:00 +30°C° 0 mm 6 mps 665 mmHg 26%
    20:00 +27°C° 0 mm 5 mps 665 mmHg 36%
    21:00 +25°C° 0 mm 3 mps 665 mmHg 45%
    22:00 +25°C° 0 mm 3 mps 665 mmHg 45%
    23:00 +24°C° 0 mm 3 mps 665 mmHg 45%

    1 June, Monday

    Time Temperature Precipitation Wind Pressure Humidity
    00:00 +24°C° 0 mm 3 mps 664 mmHg 46%
    01:00 +24°C° 0 mm 2 mps 664 mmHg 47%
    02:00 +23°C° 0 mm 2 mps 664 mmHg 49%
    03:00 +23°C° 0 mm 1 mps 664 mmHg 51%
    04:00 +23°C° 0 mm 1 mps 664 mmHg 49%
    05:00 +24°C° 0 mm 1 mps 664 mmHg 47%
    06:00 +24°C° 0 mm 1 mps 664 mmHg 46%
    07:00 +26°C° 0 mm 3 mps 665 mmHg 38%
    08:00 +28°C° 0 mm 5 mps 665 mmHg 31%
    09:00 +30°C° 0 mm 6 mps 666 mmHg 23%
    10:00 +32°C° 0 mm 6 mps 666 mmHg 22%
    11:00 +33°C° 0 mm 7 mps 666 mmHg 20%
    12:00 +34°C° 0 mm 7 mps 666 mmHg 19%
    13:00 +34°C° 0 mm 7 mps 665 mmHg 18%
    14:00 +35°C° 0 mm 7 mps 665 mmHg 17%
    15:00 +35°C° 0 mm 6 mps 665 mmHg 16%
    16:00 +34°C° 0 mm 6 mps 664 mmHg 18%
    17:00 +34°C° 0 mm 6 mps 664 mmHg 19%
    18:00 +33°C° 0 mm 6 mps 664 mmHg 20%
    19:00 +30°C° 0.1 mm 5 mps 664 mmHg 24%
    20:00 +29°C° 0.1 mm 3 mps 664 mmHg 28%
    21:00 +27°C° 0.1 mm 2 mps 664 mmHg 32%
    22:00 +26°C° 0.1 mm 3 mps 664 mmHg 35%
    23:00 +25°C° 0.1 mm 4 mps 663 mmHg 37%
    Show more